Home > Weather > Midland > Past weeks

Flag for USA Past Weather in Midland, Texas, USA — Yesterday and Last 2 Weeks

Now
81 °F

Thundershowers. More clouds than sun.


Feels Like: 84 °F
Forecast: 70 / 84 °F
Wind: 10 mph from East

Location: Midland - Midland Airpark

Current Time: Aug 29, 2016 at 1:08:32 PM

Latest Report: Aug 29, 2016 at 12:35 PM


Visibility: 7 mi

Pressure: 30.15 "Hg (27.38 "Hg at 847m altitude)

Humidity: 63%

Dew Point: 67 °F

Location of MidlandLocation

Past Weather in Midland — Graph

°F

Midland Temperature Yesterday

Maximum temperature yesterday: 91 °F (at 3:35 PM)
Minimum temperature yesterday: 71 °F (at 8:15 AM)
Average temperature yesterday: 79 °F

High & Low Weather Summary for the Past Weeks

 TemperatureHumidityPressure
High94 °F (Aug 27, 5:55 PM)100% (Aug 29, 6:15 AM)30.19 "Hg (Aug 29, 6:15 AM)
Low66 °F (Aug 15, 7:15 AM)17% (Aug 16, 7:35 PM)29.89 "Hg (Aug 19, 6:55 PM)
Average78 °F61%30.09 "Hg
* Reported Aug 14 11:15 AM — Aug 29 11:55 AM, Midland, Weather by CustomWeather, © 2016

Note: Actual official high and low records may vary slightly from our data, if they occured in-between our weather recording intervals... More about our weather records

Advertising

Midland Weather History for the Previous 24 Hours

Scroll right to see more
 ConditionsComfort  
Time TempWeatherWind HumidityBarometerVisibility
11:55 AM
Mon, Aug 29
79 °FThundershowers. More clouds than sun.10 mph67%30.16 "Hg10 mi
11:35 AM78 °FBroken clouds.9 mph70%30.16 "Hg10 mi
11:15 AM77 °FScattered clouds.9 mph72%30.16 "Hg10 mi
10:55 AM77 °FBroken clouds.12 mph73%30.16 "Hg7 mi
10:35 AM76 °FBroken clouds.10 mph75%30.16 "Hg10 mi
10:15 AM74 °FPartly sunny.12 mph79%30.16 "Hg10 mi
9:55 AM73 °FScattered clouds.12 mph81%30.16 "Hg7 mi
9:35 AM71 °FScattered clouds.10 mph83%30.15 "Hg7 mi
9:15 AM70 °FScattered clouds.9 mph86%30.15 "Hg10 mi
8:55 AM69 °FSunny.8 mph88%30.14 "Hg10 mi
8:15 AM69 °FMostly cloudy.6 mph100%30.14 "Hg7 mi
7:55 AM69 °FMostly cloudy.6 mph100%30.13 "Hg10 mi
7:15 AM69 °FPassing clouds.6 mph100%30.13 "Hg10 mi
6:55 AM69 °FRain. Mostly cloudy.6 mph100%30.13 "Hg10 mi
6:15 AM68 °FLight rain. Partly cloudy.9 mph100%30.12 "Hg10 mi
5:55 AM69 °FRain. Mostly cloudy.7 mph99%30.13 "Hg10 mi
5:15 AM69 °FRain. Overcast.8 mph89%30.13 "Hg7 mi
4:55 AM69 °FOvercast.9 mph88%30.13 "Hg10 mi
4:35 AM70 °FOvercast.9 mph88%30.13 "Hg10 mi
4:15 AM71 °FMostly cloudy.6 mph88%30.12 "Hg10 mi
3:55 AM71 °FPartly cloudy.6 mph86%30.12 "Hg10 mi
3:35 AM71 °FPassing clouds.No wind85%30.12 "Hg10 mi
3:15 AM72 °FRain. Mostly cloudy.7 mph83%30.12 "Hg10 mi
2:55 AM75 °FMostly cloudy.10 mph74%30.12 "Hg10 mi
2:15 AM76 °FMostly cloudy.3 mph70%30.12 "Hg10 mi
1:55 AM76 °FThundershowers. Overcast.3 mph70%30.12 "Hg10 mi
1:35 AM76 °FPartly cloudy.3 mph69%30.12 "Hg10 mi
1:15 AM77 °FThundershowers. Mostly cloudy.5 mph70%30.11 "Hg10 mi
12:55 AM76 °FThundershowers. Mostly cloudy.6 mph71%30.10 "Hg10 mi
12:15 AM76 °FPassing clouds.7 mph71%30.12 "Hg10 mi
11:55 PM
Sun, Aug 28
77 °FPassing clouds.7 mph70%30.12 "Hg10 mi
11:35 PM77 °FThundershowers. Partly cloudy.8 mph70%30.12 "Hg10 mi
11:15 PM77 °FPassing clouds.7 mph68%30.13 "Hg10 mi
10:55 PM77 °FPassing clouds.10 mph67%30.12 "Hg10 mi
10:15 PM77 °FPassing clouds.9 mph68%30.10 "Hg10 mi
9:55 PM77 °FPartly cloudy.8 mph68%30.10 "Hg10 mi
9:35 PM77 °FLight rain. Mostly cloudy.10 mph69%30.09 "Hg10 mi
9:15 PM77 °FMostly cloudy.9 mph67%30.10 "Hg10 mi
8:55 PM77 °FScattered clouds.12 mph65%30.09 "Hg10 mi
8:15 PM76 °FScattered clouds.9 mph73%30.05 "Hg10 mi
7:55 PM76 °FRain. Cloudy.10 mph77%30.05 "Hg10 mi
7:35 PM75 °FThunderstorms. Cloudy.7 mph77%30.05 "Hg10 mi
7:15 PM77 °FRain. Overcast.12 mph73%30.06 "Hg10 mi
6:55 PM83 °FThundershowers. Broken clouds.23 mph53%30.04 "Hg10 mi
6:35 PM88 °FSunny.14 mph40%30.01 "Hg10 mi
6:15 PM90 °FSunny.10 mph33%30.00 "Hg10 mi
5:55 PM91 °FSunny.10 mph32%30.01 "Hg10 mi
5:15 PM88 °FSunny.12 mph34%30.02 "Hg10 mi
4:55 PM88 °FSunny.10 mph36%30.03 "Hg10 mi
4:35 PM89 °FScattered clouds.15 mph37%30.03 "Hg10 mi
4:15 PM89 °FBroken clouds.15 mph38%30.03 "Hg10 mi
3:55 PM89 °FScattered clouds.12 mph37%30.04 "Hg10 mi
3:35 PM91 °FSunny.14 mph36%30.04 "Hg10 mi
3:15 PM89 °FScattered clouds.9 mph40%30.05 "Hg10 mi
2:55 PM90 °FBroken clouds.12 mph36%30.07 "Hg10 mi
2:15 PM89 °FScattered clouds.9 mph39%30.09 "Hg10 mi
1:55 PM88 °FScattered clouds.10 mph43%30.10 "Hg10 mi
1:35 PM89 °FPartly sunny.7 mph41%30.10 "Hg10 mi
1:15 PM86 °FScattered clouds.7 mph46%30.10 "Hg10 mi
Weather by CustomWeather, © 2016

See weather overviewHow to use our weather pages